Regional Weather Roundup
Issued by NWS Portland, ME

Home | Current Version | Previous Version | Text Only | Print | Product List | Glossary On
Versions: 1 2 3 4 5 6 7 8 9 10 11 12 13 14 15 16 17 18 19 20 21 22 23 24 25 26 27 28 29 30 31 32 33 34 35 36 37 38 39 40 41 42 43 44 45 46 47 48 49 50
000
ASUS41 KGYX 210310
RWRGYX
WEATHER ROUNDUP FOR MAINE AND NEW HAMPSHIRE
NATIONAL WEATHER SERVICE GRAY ME
1000 PM EST MON FEB 20 2017

MEZ002-005-006-010-012-015-018-020-021-024-026-027-029-210400-
MAINE

CITY           SKY/WX    TMP DP  RH WIND       PRES   REMARKS
PORTLAND       CLEAR     27  14  58 W7        30.32F
SANFORD        CLEAR     29  15  56 NW7       30.33R
BAR HARBOR     CLEAR     30  16  56 N8        30.30R
WISCASSET      CLEAR     32  13  45 CALM      30.32S
ROCKLAND       PTCLDY    33  13  43 VRB6      30.30R
FRYEBURG       CLEAR     24  12  60 SW3       30.33R
LEWISTONAUBURN CLEAR     27  15  61 N5        30.32S
AUGUSTA        CLEAR     27  11  51 N6        30.31S
WATERVILLE     CLEAR     28  14  54 N6        30.29S
BANGOR         CLEAR     27  13  55 N9        30.32R
GREENVILLE       N/A     23  12  62 NW3       30.24S
MILLINOCKET    CLEAR     26   8  46 N9        30.33R
HOULTON        CLEAR     21   7  54 NW5       30.30R
PRESQUE ISLE   CLOUDY    12   4  70 W3        30.33R
FRENCHVILLE    CLOUDY    16   6  65 NW5       30.28S
CARIBOU        CLOUDY    17   4  56 NW8       30.30R
$$

NHZ002-005-008-009-011-012-014-210400-
NEW HAMPSHIRE

CITY           SKY/WX    TMP DP  RH WIND       PRES   REMARKS
PORTSMOUTH     CLEAR     30  13  50 W5        30.33R
ROCHESTER      CLEAR     27  13  55 NW9       30.33R
NASHUA         CLEAR     27  17  66 W5        30.36R
MANCHESTER     CLEAR     31  13  47 NW6       30.34R
CONCORD        CLEAR     21  15  78 CALM      30.36R
LACONIA        CLEAR     23  16  74 MISG      30.35
PLYMOUTH       FAIR      30  13  49 W8        30.35R
BERLIN         CLEAR     16   9  74 CALM      30.33R
WHITEFIELD     CLEAR     20  11  68 CALM      30.35R
JAFFREY        CLEAR     20  14  77 CALM      30.32S
KEENE          CLEAR     24  16  71 CALM      30.37R
LEBANON        CLEAR     23  14  68 CALM      30.38R
MT WASHINGTON  CLEAR     12   0  57 NE37        N/A  WCI -11
$$

VTZ005-007-008-210400-
VERMONT

CITY           SKY/WX    TMP DP  RH WIND       PRES   REMARKS
ST JOHNSBURY     N/A     22  15  75 MISG      30.37R
MONTPELIER     CLOUDY    19  12  74 S3        30.40R
BURLINGTON     CLOUDY    25  16  68 CALM      30.42R
$$

MAZ007-012-024-CTZ003-RIZ002-NYZ038-NYZ072-210400-
SOUTHERN NEW ENGLAND AND NY

CITY           SKY/WX    TMP DP  RH WIND       PRES   REMARKS
BOSTON         CLEAR     37  15  40 NW10      30.35R
WORCESTER      CLEAR     31  10  41 NW10      30.31R
NANTUCKET      CLEAR     32  25  75 NW6       30.30R
PROVIDENCE     CLEAR     36  13  38 N7        30.34S
HARTFORD       PTCLDY    32  10  40 N7        30.35S
ALBANY         CLEAR     30  12  47 N3        30.40R
NEW YORK CITY  PTCLDY    45  15  30 NE14G25   30.34R
$$

ANZ081-ANZ082-ANZ150-NHZ014-MEZ023>029-210400-
COASTAL MARINE OBSERVATIONS

STATION/POSITION TIME  TEMP    WIND        PRES    WAVE
                       AIR SEA DIR/SP/G            HT/PER
                 (UTC) (F)     (DEG/KT/KT) (MB)    (FT/S)
MOUNT DESERT ROC 0300   36                 1025.1R
MATINICUS ROCK   0200   37     360/ 18/ 20 1024.6R
ISLE OF SHOALS   0200   37     360/ 11/ 12 1026.2R
JEFFREYS LEDGE   0206      43                N/A     4/ 5
CASHES LEDGE BUO 0250   38 42              1025.2R   5/ 5
GEORGES BANK BUO 0250   38 42              1021.8R   9/ 8
$$

.............KEY..............
   WCI - WIND CHILL
   TC  - TEMPERATURE IN CELSIUS
   VSB - VISIBILITY IN MILES
   HX  - HEAT INDEX
   FAIR- INDICATES FEW OR NO CLOUDS BELOW 12,000 FT, WITH NO
         SIGNIFICANT WEATHER AND/OR OBSTRUCTIONS TO VISIBILITY.






USA.gov is the U.S. government's official web portal to all federal, state and local government web resources and services.